Location: Lawrence Hall of Science
(37.8785°N, 122.2415°W)
Time: 13:44:35
(UTC-07:00)

ARGOS - Visible Passes

Search period start: 26 September 2016 00:00
Search period end: 06 October 2016 00:00
Orbit: 821 x 834 km, 98.7° (Epoch: 25 September)

Date Brightness Start Highest point End Pass type
(mag) Time Alt. Az. Time Alt. Az. Time Alt. Az.
26 Sep 5.4 21:24:38 12° NNE 21:24:38 12° NNE 21:25:12 10° NNE visible
26 Sep 6.0 23:06:10 12° NNW 23:06:10 12° NNW 23:06:28 10° NNW visible
27 Sep 5.8 22:47:31 13° NNW 22:47:31 13° NNW 22:48:03 10° NNW visible
28 Sep 5.7 22:28:52 14° N 22:28:52 14° N 22:29:31 10° N visible
29 Sep 5.6 22:10:13 13° N 22:10:13 13° N 22:10:50 10° N visible
30 Sep 5.6 21:51:34 12° N 21:51:34 12° N 21:52:01 10° N visible
01 Oct 5.6 21:32:56 10° NNE 21:32:56 10° NNE 21:33:01 10° NNE visible
